Station Historical Data
Daily Summary for January 30, 2017 Units:  English    Metric   Both
« Previous Day
Next Day »
Daily Weekly Monthly Yearly Custom
  High: Low: Average:
Temperature: 59.6 °F 43.4 °F 49.3 °F
Dew Point: 44.7 °F 28.7 °F 35.9 °F
Humidity: 78 % 47 % 60 %
Wind Speed: 11.0 mph 0.0 mph 1.4 mph
Wind Gust: 14.0 mph - -
Wind:- - ESE
Pressure: 30.36 in 30.22 in -
Precipitation: 0.00 in    
Historical Graphs
 
 
Tabular Data for January 30, 2017
Time Temperature Dew Point Pressure Wind Wind Speed Wind Gust Humidity Rainfall Rate (Hourly) solar
00:03 45.5 °F 32.8 °F 30.36 in Calm   5.0 mph 61 % 0.00 in 0.00 W/m2
00:08 45.4 °F 32.8 °F 30.35 in Calm   4.0 mph 61 % 0.00 in 0.00 W/m2
00:13 45.3 °F 32.7 °F 30.36 in East 1.0 mph 5.0 mph 61 % 0.00 in 0.00 W/m2
00:18 45.1 °F 32.1 °F 30.36 in Calm   6.0 mph 60 % 0.00 in 0.00 W/m2
00:24 44.9 °F 32.3 °F 30.35 in East 6.0 mph 7.0 mph 61 % 0.00 in 0.00 W/m2
00:29 44.9 °F 32.3 °F 30.35 in East 1.0 mph 8.0 mph 61 % 0.00 in 0.00 W/m2
00:34 44.7 °F 32.1 °F 30.35 in ESE 6.0 mph 8.0 mph 61 % 0.00 in 0.00 W/m2
00:39 44.7 °F 32.1 °F 30.35 in ESE 2.0 mph 9.0 mph 61 % 0.00 in 0.00 W/m2
00:44 44.7 °F 32.1 °F 30.35 in Calm   8.0 mph 61 % 0.00 in 0.00 W/m2
00:49 44.7 °F 31.7 °F 30.35 in Calm   5.0 mph 60 % 0.00 in 0.00 W/m2
00:54 44.7 °F 31.7 °F 30.35 in ESE 4.0 mph 9.0 mph 60 % 0.00 in 0.00 W/m2
00:59 44.7 °F 32.1 °F 30.35 in East 5.0 mph 7.0 mph 61 % 0.00 in 0.00 W/m2
01:04 44.7 °F 32.5 °F 30.34 in ESE 11.0 mph 12.0 mph 62 % 0.00 in 0.00 W/m2
01:09 44.7 °F 32.1 °F 30.34 in East 4.0 mph 13.0 mph 61 % 0.00 in 0.00 W/m2
01:14 44.7 °F 31.3 °F 30.34 in ESE 1.0 mph 12.0 mph 59 % 0.00 in 0.00 W/m2
01:19 44.8 °F 31.4 °F 30.34 in ESE 8.0 mph 8.0 mph 59 % 0.00 in 0.00 W/m2
01:24 44.9 °F 31.9 °F 30.34 in Calm   8.0 mph 60 % 0.00 in 0.00 W/m2
01:29 45.0 °F 31.5 °F 30.34 in Calm   9.0 mph 59 % 0.00 in 0.00 W/m2
01:34 45.0 °F 31.1 °F 30.34 in Calm   6.0 mph 58 % 0.00 in 0.00 W/m2
01:39 45.1 °F 30.8 °F 30.34 in Calm   6.0 mph 57 % 0.00 in 0.00 W/m2
01:44 45.1 °F 32.1 °F 30.34 in Calm   6.0 mph 60 % 0.00 in 0.00 W/m2
01:49 45.1 °F 30.8 °F 30.34 in East 4.0 mph 7.0 mph 57 % 0.00 in 0.00 W/m2
01:54 45.1 °F 31.2 °F 30.34 in East 2.0 mph 8.0 mph 58 % 0.00 in 0.00 W/m2
01:59 45.1 °F 30.8 °F 30.34 in ESE 5.0 mph 6.0 mph 57 % 0.00 in 0.00 W/m2
02:04 45.2 °F 30.9 °F 30.34 in ESE 2.0 mph 6.0 mph 57 % 0.00 in 0.00 W/m2
02:09 45.2 °F 30.9 °F 30.34 in Calm   8.0 mph 57 % 0.00 in 0.00 W/m2
02:14 45.2 °F 31.3 °F 30.34 in Calm   6.0 mph 58 % 0.00 in 0.00 W/m2
02:19 45.1 °F 31.2 °F 30.34 in ESE 4.0 mph 8.0 mph 58 % 0.00 in 0.00 W/m2
02:24 45.1 °F 31.2 °F 30.34 in ESE 1.0 mph 7.0 mph 58 % 0.00 in 0.00 W/m2
02:29 45.0 °F 31.5 °F 30.34 in ESE 1.0 mph 7.0 mph 59 % 0.00 in 0.00 W/m2
02:34 44.8 °F 31.4 °F 30.34 in Calm   11.0 mph 59 % 0.00 in 0.00 W/m2
02:39 44.7 °F 31.7 °F 30.34 in ESE 1.0 mph 9.0 mph 60 % 0.00 in 0.00 W/m2
02:44 44.5 °F 31.5 °F 30.34 in ESE 1.0 mph 9.0 mph 60 % 0.00 in 0.00 W/m2
02:49 44.3 °F 31.3 °F 30.34 in Calm   7.0 mph 60 % 0.00 in 0.00 W/m2
02:54 44.2 °F 31.6 °F 30.34 in ESE 7.0 mph 9.0 mph 61 % 0.00 in 0.00 W/m2
02:59 44.1 °F 31.5 °F 30.34 in Calm   9.0 mph 61 % 0.00 in 0.00 W/m2
03:05 44.1 °F 31.5 °F 30.34 in ESE 1.0 mph 7.0 mph 61 % 0.00 in 0.00 W/m2
03:10 44.0 °F 31.4 °F 30.33 in Calm   11.0 mph 61 % 0.00 in 0.00 W/m2
03:15 44.0 °F 31.0 °F 30.34 in ESE 1.0 mph 6.0 mph 60 % 0.00 in 0.00 W/m2
03:20 44.0 °F 31.0 °F 30.33 in ESE 4.0 mph 6.0 mph 60 % 0.00 in 0.00 W/m2
03:25 43.9 °F 31.3 °F 30.33 in ESE 2.0 mph 7.0 mph 61 % 0.00 in 0.00 W/m2
03:30 43.9 °F 31.3 °F 30.33 in Calm   7.0 mph 61 % 0.00 in 0.00 W/m2
03:35 43.9 °F 31.3 °F 30.33 in ESE 2.0 mph 8.0 mph 61 % 0.00 in 0.00 W/m2
03:40 43.9 °F 31.3 °F 30.33 in Calm   6.0 mph 61 % 0.00 in 0.00 W/m2
03:45 43.9 °F 31.3 °F 30.33 in ESE 2.0 mph 7.0 mph 61 % 0.00 in 0.00 W/m2
03:50 43.8 °F 31.6 °F 30.33 in ESE 6.0 mph 7.0 mph 62 % 0.00 in 0.00 W/m2
03:51 43.8 °F 31.6 °F 30.33 in ESE 1.0 mph 7.0 mph 62 % 0.00 in 0.00 W/m2
03:56 43.8 °F 31.6 °F 30.33 in ESE 2.0 mph 2.0 mph 62 % 0.00 in 0.00 W/m2
04:01 43.7 °F 30.7 °F 30.33 in Calm     60 % 0.00 in 0.00 W/m2
04:06 43.6 °F 31.0 °F 30.33 in ESE 2.0 mph 4.0 mph 61 % 0.00 in 0.00 W/m2
04:11 43.6 °F 30.6 °F 30.32 in ESE 4.0 mph 4.0 mph 60 % 0.00 in 0.00 W/m2
04:16 43.6 °F 30.6 °F 30.32 in ESE 4.0 mph 4.0 mph 60 % 0.00 in 0.00 W/m2
04:21 43.6 °F 31.0 °F 30.32 in ESE 1.0 mph 2.0 mph 61 % 0.00 in 0.00 W/m2
04:26 43.6 °F 31.0 °F 30.32 in ESE 1.0 mph 7.0 mph 61 % 0.00 in 0.00 W/m2
04:31 43.6 °F 30.6 °F 30.32 in Calm   6.0 mph 60 % 0.00 in 0.00 W/m2
04:36 43.6 °F 29.8 °F 30.31 in East 2.0 mph 5.0 mph 58 % 0.00 in 0.00 W/m2
04:41 43.7 °F 30.3 °F 30.31 in ESE 6.0 mph 8.0 mph 59 % 0.00 in 0.00 W/m2
04:46 43.7 °F 30.7 °F 30.31 in East 2.0 mph 8.0 mph 60 % 0.00 in 0.00 W/m2
04:51 43.7 °F 31.1 °F 30.31 in Calm   2.0 mph 61 % 0.00 in 0.00 W/m2
04:56 43.6 °F 31.0 °F 30.31 in ESE 6.0 mph 6.0 mph 61 % 0.00 in 0.00 W/m2
05:01 43.6 °F 30.6 °F 30.31 in ESE 4.0 mph 6.0 mph 60 % 0.00 in 0.00 W/m2
05:06 43.5 °F 31.0 °F 30.31 in East 2.0 mph 6.0 mph 61 % 0.00 in 0.00 W/m2
05:11 43.4 °F 30.5 °F 30.31 in Calm   1.0 mph 60 % 0.00 in 0.00 W/m2
05:16 43.4 °F 30.9 °F 30.31 in East 5.0 mph 5.0 mph 61 % 0.00 in 0.00 W/m2
05:21 43.4 °F 30.5 °F 30.31 in ESE 4.0 mph 4.0 mph 60 % 0.00 in 0.00 W/m2
05:26 43.4 °F 30.9 °F 30.31 in ESE 2.0 mph 8.0 mph 61 % 0.00 in 0.00 W/m2
05:31 43.4 °F 30.9 °F 30.31 in Calm   2.0 mph 61 % 0.00 in 0.00 W/m2
05:36 43.4 °F 30.5 °F 30.31 in Calm   7.0 mph 60 % 0.00 in 0.00 W/m2
05:41 43.4 °F 30.5 °F 30.31 in Calm   12.0 mph 60 % 0.00 in 0.00 W/m2
05:46 43.5 °F 30.1 °F 30.31 in ESE 11.0 mph 13.0 mph 59 % 0.00 in 0.00 W/m2
05:52 43.6 °F 30.2 °F 30.30 in Calm   7.0 mph 59 % 0.00 in 0.00 W/m2
05:57 43.6 °F 30.6 °F 30.31 in ESE 7.0 mph 14.0 mph 60 % 0.00 in 0.00 W/m2
06:02 43.6 °F 30.2 °F 30.31 in ESE 2.0 mph 2.0 mph 59 % 0.00 in 0.00 W/m2
06:07 43.6 °F 29.8 °F 30.31 in Calm   5.0 mph 58 % 0.00 in 0.00 W/m2
06:12 43.7 °F 30.7 °F 30.31 in Calm   1.0 mph 60 % 0.00 in 0.00 W/m2
06:17 43.6 °F 30.2 °F 30.31 in Calm   1.0 mph 59 % 0.00 in 0.00 W/m2
06:22 43.6 °F 31.0 °F 30.31 in Calm   4.0 mph 61 % 0.00 in 0.00 W/m2
06:27 43.6 °F 29.8 °F 30.31 in Calm   2.0 mph 58 % 0.00 in 0.00 W/m2
06:32 43.5 °F 29.7 °F 30.31 in ESE 2.0 mph 4.0 mph 58 % 0.00 in 0.00 W/m2
06:37 43.5 °F 29.7 °F 30.31 in ESE 1.0 mph 4.0 mph 58 % 0.00 in 0.00 W/m2
06:42 43.5 °F 29.3 °F 30.31 in Calm   1.0 mph 57 % 0.00 in 0.00 W/m2
06:47 43.5 °F 30.1 °F 30.31 in Calm   7.0 mph 59 % 0.00 in 0.00 W/m2
06:52 43.5 °F 29.3 °F 30.31 in East 1.0 mph 8.0 mph 57 % 0.00 in 0.00 W/m2
06:57 43.5 °F 29.3 °F 30.31 in ESE 2.0 mph 4.0 mph 57 % 0.00 in 0.00 W/m2
07:02 43.6 °F 29.0 °F 30.31 in East 4.0 mph 6.0 mph 56 % 0.00 in 0.00 W/m2
07:07 43.7 °F 29.5 °F 30.31 in ESE 1.0 mph 4.0 mph 57 % 0.00 in 5.00 W/m2
07:12 43.8 °F 29.6 °F 30.31 in Calm   4.0 mph 57 % 0.00 in 5.00 W/m2
07:17 43.8 °F 29.6 °F 30.31 in ESE 2.0 mph 4.0 mph 57 % 0.00 in 9.00 W/m2
07:22 43.8 °F 29.6 °F 30.31 in ESE 4.0 mph 6.0 mph 57 % 0.00 in 14.00 W/m2
07:27 43.8 °F 29.6 °F 30.31 in ESE 4.0 mph 5.0 mph 57 % 0.00 in 21.00 W/m2
07:32 43.8 °F 28.7 °F 30.32 in ESE 1.0 mph 7.0 mph 55 % 0.00 in 26.00 W/m2
07:37 43.8 °F 29.1 °F 30.32 in ESE 1.0 mph 5.0 mph 56 % 0.00 in 33.00 W/m2
07:42 43.8 °F 29.1 °F 30.32 in ESE 1.0 mph 4.0 mph 56 % 0.00 in 42.00 W/m2
07:47 43.8 °F 30.0 °F 30.32 in Calm   6.0 mph 58 % 0.00 in 54.00 W/m2
07:52 43.9 °F 30.1 °F 30.32 in ESE 1.0 mph 4.0 mph 58 % 0.00 in 69.00 W/m2
07:57 43.8 °F 30.0 °F 30.32 in East 2.0 mph 7.0 mph 58 % 0.00 in 83.00 W/m2
08:02 43.8 °F 30.8 °F 30.32 in ESE 1.0 mph 4.0 mph 60 % 0.00 in 91.00 W/m2
08:08 43.8 °F 30.4 °F 30.32 in ESE 1.0 mph 2.0 mph 59 % 0.00 in 105.00 W/m2
08:13 43.9 °F 29.7 °F 30.32 in Calm   6.0 mph 57 % 0.00 in 125.00 W/m2
08:18 44.0 °F 30.2 °F 30.32 in Calm   2.0 mph 58 % 0.00 in 151.00 W/m2
08:19 44.1 °F 30.3 °F 30.32 in Calm   6.0 mph 58 % 0.00 in 158.00 W/m2
08:22 44.2 °F 30.4 °F 30.32 in Calm   2.0 mph 58 % 0.00 in 163.00 W/m2
08:23 44.2 °F 30.0 °F 30.32 in Calm   5.0 mph 57 % 0.00 in 163.00 W/m2
08:27 44.3 °F 30.0 °F 30.32 in Calm   1.0 mph 57 % 0.00 in 181.00 W/m2
08:32 44.5 °F 30.7 °F 30.32 in Calm   5.0 mph 58 % 0.00 in 197.00 W/m2
08:37 44.7 °F 31.3 °F 30.32 in Calm   5.0 mph 59 % 0.00 in 220.00 W/m2
08:42 44.9 °F 32.3 °F 30.32 in Calm   2.0 mph 61 % 0.00 in 230.00 W/m2
08:47 45.1 °F 32.5 °F 30.32 in Calm   4.0 mph 61 % 0.00 in 244.00 W/m2
08:52 45.1 °F 31.6 °F 30.32 in ESE 1.0 mph 1.0 mph 59 % 0.00 in 294.00 W/m2
08:57 45.3 °F 32.2 °F 30.32 in Calm   5.0 mph 60 % 0.00 in 309.00 W/m2
09:03 45.4 °F 31.1 °F 30.32 in Calm   5.0 mph 57 % 0.00 in 301.00 W/m2
09:08 45.7 °F 31.4 °F 30.32 in ESE 1.0 mph 5.0 mph 57 % 0.00 in 311.00 W/m2
09:13 46.0 °F 32.1 °F 30.32 in Calm   6.0 mph 58 % 0.00 in 308.00 W/m2
09:18 46.4 °F 32.9 °F 30.32 in ESE 1.0 mph 7.0 mph 59 % 0.00 in 327.00 W/m2
09:23 46.7 °F 33.6 °F 30.32 in Calm   5.0 mph 60 % 0.00 in 353.00 W/m2
09:28 47.0 °F 34.3 °F 30.32 in Calm     61 % 0.00 in 367.00 W/m2
09:34 47.3 °F 33.3 °F 30.33 in Calm     58 % 0.00 in 378.00 W/m2
09:39 47.6 °F 34.4 °F 30.33 in Calm     60 % 0.00 in 411.00 W/m2
09:44 48.0 °F 34.8 °F 30.32 in ESE 1.0 mph 2.0 mph 60 % 0.00 in 427.00 W/m2
09:49 48.3 °F 35.1 °F 30.32 in Calm     60 % 0.00 in 441.00 W/m2
09:54 48.7 °F 36.3 °F 30.33 in ESE 4.0 mph 4.0 mph 62 % 0.00 in 415.00 W/m2
09:59 49.0 °F 35.7 °F 30.33 in Calm   6.0 mph 60 % 0.00 in 461.00 W/m2
10:06 49.5 °F 34.5 °F 30.32 in Calm     56 % 0.00 in 494.00 W/m2
10:11 49.9 °F 34.8 °F 30.32 in ESE 6.0 mph 6.0 mph 56 % 0.00 in 462.00 W/m2
10:14 50.1 °F 34.6 °F 30.32 in Calm   8.0 mph 55 % 0.00 in 489.00 W/m2
10:16 50.3 °F 33.8 °F 30.33 in Calm   4.0 mph 53 % 0.00 in 494.00 W/m2
10:21 50.9 °F 33.9 °F 30.33 in ESE 2.0 mph 5.0 mph 52 % 0.00 in 512.00 W/m2
10:26 51.3 °F 31.8 °F 30.33 in ESE 4.0 mph 6.0 mph 47 % 0.00 in 524.00 W/m2
10:31 51.8 °F 32.2 °F 30.33 in Calm   2.0 mph 47 % 0.00 in 512.00 W/m2
10:36 52.3 °F 34.7 °F 30.32 in Calm   2.0 mph 51 % 0.00 in 522.00 W/m2
10:41 52.7 °F 34.6 °F 30.32 in Calm     50 % 0.00 in 545.00 W/m2
10:46 53.1 °F 35.0 °F 30.32 in ESE 1.0 mph 1.0 mph 50 % 0.00 in 526.00 W/m2
10:51 53.7 °F 35.5 °F 30.32 in Calm     50 % 0.00 in 552.00 W/m2
10:56 54.2 °F 35.0 °F 30.32 in Calm     48 % 0.00 in 570.00 W/m2
11:01 54.7 °F 36.4 °F 30.32 in SE 5.0 mph 6.0 mph 50 % 0.00 in 566.00 W/m2
11:06 55.1 °F 36.3 °F 30.32 in Calm   1.0 mph 49 % 0.00 in 536.00 W/m2
11:11 55.4 °F 37.1 °F 30.32 in SE 1.0 mph 1.0 mph 50 % 0.00 in 582.00 W/m2
11:16 55.7 °F 36.8 °F 30.31 in Calm     49 % 0.00 in 571.00 W/m2
11:21 55.9 °F 37.0 °F 30.31 in Calm   2.0 mph 49 % 0.00 in 584.00 W/m2
11:27 56.2 °F 37.8 °F 30.31 in Calm     50 % 0.00 in 582.00 W/m2
11:32 56.3 °F 36.9 °F 30.31 in Calm   2.0 mph 48 % 0.00 in 598.00 W/m2
11:37 56.4 °F 38.0 °F 30.31 in Calm   2.0 mph 50 % 0.00 in 510.00 W/m2
11:42 56.5 °F 36.5 °F 30.30 in Calm   2.0 mph 47 % 0.00 in 536.00 W/m2
11:47 56.7 °F 38.3 °F 30.30 in South 1.0 mph 4.0 mph 50 % 0.00 in 390.00 W/m2
11:52 56.8 °F 37.3 °F 30.30 in South 1.0 mph 2.0 mph 48 % 0.00 in 374.00 W/m2
11:57 56.9 °F 38.0 °F 30.30 in Calm     49 % 0.00 in 420.00 W/m2
12:02 57.0 °F 39.1 °F 30.30 in Calm     51 % 0.00 in 448.00 W/m2
12:07 57.1 °F 38.1 °F 30.30 in Calm     49 % 0.00 in 496.00 W/m2
12:12 57.3 °F 38.8 °F 30.30 in Calm     50 % 0.00 in 438.00 W/m2
12:17 57.4 °F 37.9 °F 30.30 in Calm     48 % 0.00 in 490.00 W/m2
12:22 57.5 °F 38.5 °F 30.29 in Calm     49 % 0.00 in 482.00 W/m2
12:27 57.6 °F 39.1 °F 30.29 in Calm     50 % 0.00 in 496.00 W/m2
12:32 57.7 °F 40.7 °F 30.29 in Calm     53 % 0.00 in 461.00 W/m2
12:37 57.7 °F 41.7 °F 30.29 in Calm     55 % 0.00 in 476.00 W/m2
12:42 57.5 °F 40.5 °F 30.29 in Calm     53 % 0.00 in 464.00 W/m2
12:47 57.3 °F 40.3 °F 30.29 in Calm     53 % 0.00 in 512.00 W/m2
12:52 57.2 °F 39.8 °F 30.29 in Calm     52 % 0.00 in 573.00 W/m2
12:57 57.2 °F 39.8 °F 30.28 in Calm     52 % 0.00 in 483.00 W/m2
13:02 57.2 °F 40.2 °F 30.28 in Calm     53 % 0.00 in 591.00 W/m2
13:07 57.3 °F 41.3 °F 30.28 in Calm     55 % 0.00 in 608.00 W/m2
13:12 57.3 °F 39.8 °F 30.28 in South 1.0 mph 2.0 mph 52 % 0.00 in 599.00 W/m2
13:17 57.5 °F 39.5 °F 30.28 in Calm   3.0 mph 51 % 0.00 in 584.00 W/m2
13:22 57.7 °F 40.2 °F 30.28 in Calm   4.0 mph 52 % 0.00 in 533.00 W/m2
13:27 57.8 °F 39.3 °F 30.27 in SSW 1.0 mph 4.0 mph 50 % 0.00 in 541.00 W/m2
13:32 57.9 °F 39.9 °F 30.27 in Calm   3.0 mph 51 % 0.00 in 557.00 W/m2
13:37 58.0 °F 39.5 °F 30.27 in Calm   4.0 mph 50 % 0.00 in 496.00 W/m2
13:42 58.2 °F 40.2 °F 30.27 in Calm     51 % 0.00 in 541.00 W/m2
13:47 58.3 °F 41.8 °F 30.26 in Calm     54 % 0.00 in 529.00 W/m2
13:52 58.5 °F 41.0 °F 30.26 in Calm   5.0 mph 52 % 0.00 in 527.00 W/m2
13:57 58.9 °F 40.8 °F 30.26 in Calm     51 % 0.00 in 529.00 W/m2
14:02 59.2 °F 40.1 °F 30.26 in SSE 5.0 mph 6.0 mph 49 % 0.00 in 524.00 W/m2
14:08 59.5 °F 40.3 °F 30.26 in Calm   5.0 mph 49 % 0.00 in 508.00 W/m2
14:13 59.6 °F 41.0 °F 30.26 in Calm   2.0 mph 50 % 0.00 in 478.00 W/m2
14:18 59.6 °F 41.5 °F 30.26 in Calm     51 % 0.00 in 492.00 W/m2
14:23 59.6 °F 41.5 °F 30.26 in SSE 1.0 mph 5.0 mph 51 % 0.00 in 487.00 W/m2
14:28 59.5 °F 42.4 °F 30.26 in Calm   5.0 mph 53 % 0.00 in 468.00 W/m2
14:33 59.5 °F 42.9 °F 30.25 in Calm   6.0 mph 54 % 0.00 in 413.00 W/m2
14:38 59.4 °F 41.8 °F 30.25 in Calm   4.0 mph 52 % 0.00 in 452.00 W/m2
14:43 59.3 °F 41.7 °F 30.25 in Calm     52 % 0.00 in 432.00 W/m2
14:48 59.3 °F 43.2 °F 30.25 in Calm   1.0 mph 55 % 0.00 in 406.00 W/m2
14:53 59.3 °F 42.7 °F 30.25 in SSE 1.0 mph 1.0 mph 54 % 0.00 in 390.00 W/m2
14:58 59.4 °F 42.3 °F 30.25 in Calm   4.0 mph 53 % 0.00 in 404.00 W/m2
15:03 59.4 °F 42.8 °F 30.25 in Calm   4.0 mph 54 % 0.00 in 392.00 W/m2
15:08 59.3 °F 42.7 °F 30.25 in Calm     54 % 0.00 in 376.00 W/m2
15:13 59.3 °F 43.2 °F 30.25 in Calm     55 % 0.00 in 364.00 W/m2
15:18 59.2 °F 42.6 °F 30.25 in Calm   4.0 mph 54 % 0.00 in 348.00 W/m2
15:23 59.1 °F 43.4 °F 30.25 in Calm   4.0 mph 56 % 0.00 in 334.00 W/m2
15:28 59.0 °F 43.8 °F 30.25 in SSE 1.0 mph 2.0 mph 57 % 0.00 in 315.00 W/m2
15:33 58.8 °F 43.6 °F 30.25 in Calm   2.0 mph 57 % 0.00 in 246.00 W/m2
15:38 58.7 °F 42.1 °F 30.24 in Calm     54 % 0.00 in 294.00 W/m2
15:43 58.7 °F 43.1 °F 30.24 in Calm     56 % 0.00 in 292.00 W/m2
15:48 58.6 °F 43.0 °F 30.24 in Calm     56 % 0.00 in 274.00 W/m2
15:53 58.5 °F 43.3 °F 30.24 in Calm     57 % 0.00 in 239.00 W/m2
15:58 58.4 °F 43.7 °F 30.24 in Calm     58 % 0.00 in 188.00 W/m2
16:03 58.2 °F 43.5 °F 30.24 in Calm     58 % 0.00 in 188.00 W/m2
16:09 58.0 °F 44.2 °F 30.24 in Calm     60 % 0.00 in 146.00 W/m2
16:14 57.7 °F 43.5 °F 30.24 in Calm     59 % 0.00 in 141.00 W/m2
16:19 57.5 °F 43.3 °F 30.24 in Calm     59 % 0.00 in 128.00 W/m2
16:24 57.3 °F 43.5 °F 30.24 in Calm     60 % 0.00 in 120.00 W/m2
16:29 57.1 °F 43.8 °F 30.24 in Calm     61 % 0.00 in 114.00 W/m2
16:34 56.9 °F 43.6 °F 30.24 in Calm     61 % 0.00 in 90.00 W/m2
16:39 56.6 °F 44.2 °F 30.24 in Calm     63 % 0.00 in 54.00 W/m2
16:44 56.4 °F 44.4 °F 30.24 in Calm     64 % 0.00 in 42.00 W/m2
16:49 56.0 °F 44.4 °F 30.24 in Calm     65 % 0.00 in 35.00 W/m2
16:54 55.6 °F 44.4 °F 30.24 in Calm     66 % 0.00 in 32.00 W/m2
16:59 55.2 °F 44.5 °F 30.24 in Calm     67 % 0.00 in 26.00 W/m2
17:04 54.8 °F 44.5 °F 30.24 in Calm     68 % 0.00 in 19.00 W/m2
17:09 54.3 °F 44.7 °F 30.24 in Calm     70 % 0.00 in 14.00 W/m2
17:14 53.8 °F 44.3 °F 30.24 in Calm     70 % 0.00 in 11.00 W/m2
17:19 53.3 °F 44.2 °F 30.24 in Calm     71 % 0.00 in 7.00 W/m2
17:24 52.9 °F 44.1 °F 30.24 in Calm     72 % 0.00 in 0.00 W/m2
17:29 52.5 °F 43.8 °F 30.24 in Calm     72 % 0.00 in 0.00 W/m2
17:34 52.3 °F 43.9 °F 30.23 in Calm     73 % 0.00 in 0.00 W/m2
17:39 51.9 °F 43.5 °F 30.24 in Calm     73 % 0.00 in 0.00 W/m2
17:44 51.5 °F 43.1 °F 30.24 in Calm     73 % 0.00 in 0.00 W/m2
17:49 51.2 °F 43.2 °F 30.24 in Calm     74 % 0.00 in 0.00 W/m2
17:54 50.9 °F 43.3 °F 30.23 in Calm     75 % 0.00 in 0.00 W/m2
17:59 50.7 °F 43.4 °F 30.23 in SSE 2.0 mph 4.0 mph 76 % 0.00 in 0.00 W/m2
18:04 50.4 °F 43.1 °F 30.23 in SSE 1.0 mph 6.0 mph 76 % 0.00 in 0.00 W/m2
18:09 50.2 °F 43.3 °F 30.23 in Calm   6.0 mph 77 % 0.00 in 0.00 W/m2
18:14 50.0 °F 43.1 °F 30.23 in SE 2.0 mph 5.0 mph 77 % 0.00 in 0.00 W/m2
18:19 49.8 °F 42.9 °F 30.23 in Calm   6.0 mph 77 % 0.00 in 0.00 W/m2
18:24 49.7 °F 42.8 °F 30.23 in SE 2.0 mph 6.0 mph 77 % 0.00 in 0.00 W/m2
18:30 49.6 °F 42.7 °F 30.23 in SE 2.0 mph 7.0 mph 77 % 0.00 in 0.00 W/m2
18:35 49.5 °F 42.9 °F 30.23 in ESE 6.0 mph 9.0 mph 78 % 0.00 in 0.00 W/m2
18:40 49.3 °F 42.7 °F 30.23 in East 5.0 mph 8.0 mph 78 % 0.00 in 0.00 W/m2
18:45 49.3 °F 42.7 °F 30.23 in East 4.0 mph 8.0 mph 78 % 0.00 in 0.00 W/m2
18:50 49.2 °F 42.3 °F 30.23 in East 5.0 mph 8.0 mph 77 % 0.00 in 0.00 W/m2
18:55 49.1 °F 41.9 °F 30.23 in East 1.0 mph 7.0 mph 76 % 0.00 in 0.00 W/m2
19:00 49.1 °F 41.5 °F 30.23 in East 4.0 mph 7.0 mph 75 % 0.00 in 0.00 W/m2
19:05 49.1 °F 41.5 °F 30.23 in East 7.0 mph 11.0 mph 75 % 0.00 in 0.00 W/m2
19:10 49.1 °F 41.5 °F 30.23 in East 4.0 mph 9.0 mph 75 % 0.00 in 0.00 W/m2
19:15 49.0 °F 41.4 °F 30.23 in East 5.0 mph 11.0 mph 75 % 0.00 in 0.00 W/m2
19:20 49.0 °F 41.1 °F 30.23 in East 2.0 mph 10.0 mph 74 % 0.00 in 0.00 W/m2
19:25 48.9 °F 41.0 °F 30.23 in East 1.0 mph 11.0 mph 74 % 0.00 in 0.00 W/m2
19:30 48.9 °F 40.6 °F 30.23 in East 2.0 mph 7.0 mph 73 % 0.00 in 0.00 W/m2
19:35 48.9 °F 40.6 °F 30.23 in East 2.0 mph 7.0 mph 73 % 0.00 in 0.00 W/m2
19:40 48.9 °F 40.6 °F 30.22 in East 1.0 mph 12.0 mph 73 % 0.00 in 0.00 W/m2
19:45 48.9 °F 40.3 °F 30.23 in Calm   7.0 mph 72 % 0.00 in 0.00 W/m2
19:50 48.8 °F 40.2 °F 30.23 in ESE 4.0 mph 7.0 mph 72 % 0.00 in 0.00 W/m2
19:55 48.8 °F 39.8 °F 30.23 in East 9.0 mph 9.0 mph 71 % 0.00 in 0.00 W/m2
20:00 48.8 °F 39.8 °F 30.23 in East 2.0 mph 8.0 mph 71 % 0.00 in 0.00 W/m2
20:05 48.8 °F 39.8 °F 30.23 in East 2.0 mph 7.0 mph 71 % 0.00 in 0.00 W/m2
20:10 48.7 °F 39.7 °F 30.23 in Calm   9.0 mph 71 % 0.00 in 0.00 W/m2
20:15 48.7 °F 39.7 °F 30.23 in East 2.0 mph 7.0 mph 71 % 0.00 in 0.00 W/m2
20:20 48.7 °F 39.0 °F 30.23 in East 4.0 mph 9.0 mph 69 % 0.00 in 0.00 W/m2
20:25 48.5 °F 38.8 °F 30.23 in East 2.0 mph 11.0 mph 69 % 0.00 in 0.00 W/m2
20:30 48.5 °F 38.4 °F 30.23 in East 5.0 mph 7.0 mph 68 % 0.00 in 0.00 W/m2
20:35 48.5 °F 38.1 °F 30.23 in East 4.0 mph 7.0 mph 67 % 0.00 in 0.00 W/m2
20:40 48.5 °F 38.4 °F 30.23 in ESE 4.0 mph 13.0 mph 68 % 0.00 in 0.00 W/m2
20:45 48.4 °F 38.0 °F 30.23 in Calm   8.0 mph 67 % 0.00 in 0.00 W/m2
20:50 48.3 °F 38.2 °F 30.23 in Calm   7.0 mph 68 % 0.00 in 0.00 W/m2
20:55 48.2 °F 38.2 °F 30.23 in East 1.0 mph 13.0 mph 68 % 0.00 in 0.00 W/m2
21:00 48.1 °F 37.7 °F 30.23 in East 1.0 mph 8.0 mph 67 % 0.00 in 0.00 W/m2
21:05 48.0 °F 37.6 °F 30.23 in Calm   13.0 mph 67 % 0.00 in 0.00 W/m2
21:10 47.9 °F 37.1 °F 30.23 in ESE 5.0 mph 8.0 mph 66 % 0.00 in 0.00 W/m2
21:15 47.8 °F 36.6 °F 30.23 in ESE 2.0 mph 11.0 mph 65 % 0.00 in 0.00 W/m2
21:20 47.8 °F 36.6 °F 30.23 in Calm   11.0 mph 65 % 0.00 in 0.00 W/m2
21:25 47.8 °F 36.6 °F 30.23 in ESE 7.0 mph 9.0 mph 65 % 0.00 in 0.00 W/m2
21:30 47.7 °F 36.5 °F 30.23 in Calm   9.0 mph 65 % 0.00 in 0.00 W/m2
21:35 47.7 °F 36.5 °F 30.23 in East 1.0 mph 9.0 mph 65 % 0.00 in 0.00 W/m2
21:40 47.6 °F 36.4 °F 30.23 in East 6.0 mph 9.0 mph 65 % 0.00 in 0.00 W/m2
21:45 47.6 °F 36.4 °F 30.23 in Calm   11.0 mph 65 % 0.00 in 0.00 W/m2
21:50 47.5 °F 35.9 °F 30.23 in East 4.0 mph 9.0 mph 64 % 0.00 in 0.00 W/m2
21:55 47.5 °F 35.5 °F 30.23 in Calm   12.0 mph 63 % 0.00 in 0.00 W/m2
22:00 47.5 °F 35.9 °F 30.23 in Calm   7.0 mph 64 % 0.00 in 0.00 W/m2
22:05 47.4 °F 35.5 °F 30.23 in Calm   7.0 mph 63 % 0.00 in 0.00 W/m2
22:11 47.4 °F 35.5 °F 30.23 in Calm   6.0 mph 63 % 0.00 in 0.00 W/m2
22:16 47.3 °F 35.4 °F 30.24 in East 4.0 mph 8.0 mph 63 % 0.00 in 0.00 W/m2
22:21 47.2 °F 35.3 °F 30.24 in East 1.0 mph 9.0 mph 63 % 0.00 in 0.00 W/m2
22:26 47.1 °F 35.2 °F 30.24 in East 2.0 mph 6.0 mph 63 % 0.00 in 0.00 W/m2
22:31 47.0 °F 34.7 °F 30.24 in Calm   4.0 mph 62 % 0.00 in 0.00 W/m2
22:36 46.9 °F 34.6 °F 30.24 in Calm   8.0 mph 62 % 0.00 in 0.00 W/m2
22:41 46.8 °F 35.3 °F 30.25 in Calm   8.0 mph 64 % 0.00 in 0.00 W/m2
22:46 46.7 °F 34.8 °F 30.25 in East 5.0 mph 6.0 mph 63 % 0.00 in 0.00 W/m2
22:51 46.7 °F 34.4 °F 30.25 in East 1.0 mph 8.0 mph 62 % 0.00 in 0.00 W/m2
22:56 46.6 °F 34.3 °F 30.25 in East 6.0 mph 7.0 mph 62 % 0.00 in 0.00 W/m2
23:01 46.5 °F 34.6 °F 30.25 in East 4.0 mph 6.0 mph 63 % 0.00 in 0.00 W/m2
23:06 46.5 °F 34.2 °F 30.25 in East 1.0 mph 7.0 mph 62 % 0.00 in 0.00 W/m2
23:11 46.4 °F 33.7 °F 30.25 in ESE 1.0 mph 8.0 mph 61 % 0.00 in 0.00 W/m2
23:16 46.3 °F 34.4 °F 30.25 in East 7.0 mph 8.0 mph 63 % 0.00 in 0.00 W/m2
23:21 46.3 °F 33.6 °F 30.25 in East 5.0 mph 5.0 mph 61 % 0.00 in 0.00 W/m2
23:26 46.2 °F 33.5 °F 30.25 in ESE 7.0 mph 8.0 mph 61 % 0.00 in 0.00 W/m2
23:31 46.2 °F 33.1 °F 30.25 in East 6.0 mph 8.0 mph 60 % 0.00 in 0.00 W/m2
23:36 46.2 °F 33.1 °F 30.25 in ESE 6.0 mph 13.0 mph 60 % 0.00 in 0.00 W/m2
23:41 46.2 °F 33.5 °F 30.24 in East 2.0 mph 2.0 mph 61 % 0.00 in 0.00 W/m2
23:46 46.1 °F 33.4 °F 30.24 in Calm   11.0 mph 61 % 0.00 in 0.00 W/m2
23:51 46.1 °F 33.0 °F 30.24 in Calm   9.0 mph 60 % 0.00 in 0.00 W/m2
23:56 46.1 °F 33.0 °F 30.24 in East 5.0 mph 12.0 mph 60 % 0.00 in 0.00 W/m2
Juneau County Weather
Compliments of Weather Underground - 4.5 mb
 WU-history PHP script courtesy of   Juneau County Weather.
powered by Cumulus v1.9.3 (1059)
Ambient Weather VWS v14.00
Top Contact Website Map Copyright © 2007 - 2018 Foresthillweather.com Never base important decisions on this or any weather information obtained from the Internet